Date String (YYYY-MM-DD hh:mm:ss) UTC,Instrument flags,Ambient pressure (hPa),Sample flow (lpm),Bypass flow (lpm),Sample temperature (°C),Ambient temperature (°C),ASC tube jacket temperature (°C),LED temperature (°C),Box temperature (°C),Sample RH (%),Span deviation,Mass concentration (μg/m³),Mass concentration (μg/m³),Mass concentration (μg/m³)
DateTimeUTC,F1_M11,P_M11,Q1_M11,Q2_M11,T1_M11,T2_M11,T3_M11,T4_M11,T5_M11,U1_M11,ZSPAN_M11,X0_M11,X2_M11,X1_M11
2022-06-07 07:00:00,,0824.1,5.00,0.00,30.3,29.2,00.0,39.2,32.1,21.4,0000.0,0012.24,0003.74,0001.57
2022-06-07 07:01:00,,0824.1,5.00,0.00,30.3,29.2,00.0,39.2,32.1,22.0,0000.0,0010.57,0003.71,0001.57
2022-06-07 07:02:00,,0824.2,4.98,0.00,30.3,29.2,00.0,39.2,32.1,22.6,0000.0,0009.64,0003.63,0001.58
2022-06-07 07:03:00,,0824.1,5.00,0.00,30.3,29.2,00.0,39.2,32.1,23.0,0000.0,0009.26,0003.55,0001.60
2022-06-07 07:04:00,,0824.2,5.00,0.00,30.3,29.2,00.0,39.2,32.1,23.2,0000.0,0008.68,0003.45,0001.61
2022-06-07 07:05:00,,0824.2,4.99,0.00,30.3,29.2,00.0,39.2,32.1,23.4,0000.0,0009.29,0003.42,0001.63
2022-06-07 07:06:00,,0824.2,5.01,0.00,30.3,29.2,00.0,39.2,32.1,23.7,0000.0,0010.74,0003.44,0001.66
2022-06-07 07:07:00,,0824.3,5.00,0.00,30.3,29.2,00.0,39.2,32.1,23.8,0000.0,0011.53,0003.48,0001.70
2022-06-07 07:08:00,,0824.3,5.00,0.00,30.3,29.2,00.0,39.2,32.1,23.9,0000.0,0011.41,0003.46,0001.73
2022-06-07 07:09:00,,0824.3,4.99,0.00,30.3,29.2,00.0,39.2,32.1,24.1,0000.0,0011.37,0003.45,0001.75
2022-06-07 07:10:00,,0824.3,5.01,0.00,30.3,29.2,00.0,39.2,32.1,24.5,0000.0,0012.41,0003.49,0001.77
2022-06-07 07:11:00,,0824.3,4.99,0.00,30.3,29.2,00.0,39.2,32.1,24.9,0000.0,0013.45,0003.53,0001.78
2022-06-07 07:12:00,,0824.3,5.00,0.00,30.3,29.2,00.0,39.2,32.1,25.0,0000.0,0014.25,0003.54,0001.78
2022-06-07 07:13:00,,0824.3,4.99,0.00,30.3,29.2,00.0,39.2,32.1,25.1,0000.0,0014.56,0003.57,0001.80
2022-06-07 07:14:00,,0824.3,5.00,0.00,30.3,29.2,00.0,39.2,32.1,25.3,0000.0,0015.20,0003.64,0001.83
2022-06-07 07:15:00,,0824.3,5.00,0.00,30.3,29.2,00.0,39.2,32.1,25.4,0000.0,0015.64,0003.69,0001.84
2022-06-07 07:16:00,,0824.3,5.01,0.00,30.3,29.2,00.0,39.2,32.1,25.3,0000.0,0015.68,0003.76,0001.85
2022-06-07 07:17:00,,0824.4,4.99,0.00,30.3,29.2,00.0,39.2,32.1,25.3,0000.0,0014.69,0003.80,0001.86
2022-06-07 07:18:00,,0824.3,4.99,0.00,30.3,29.2,00.0,39.2,32.1,25.3,0000.0,0014.86,0003.77,0001.85
2022-06-07 07:19:00,,0824.3,5.01,0.00,30.3,29.2,00.0,39.2,32.1,25.4,0000.0,0015.27,0003.76,0001.85
2022-06-07 07:20:00,,0824.3,5.00,0.00,30.3,29.2,00.0,39.2,32.1,25.4,0000.0,0015.56,0003.73,0001.84
2022-06-07 07:21:00,,0824.3,5.01,0.00,30.3,29.3,00.0,39.2,32.1,25.5,0000.0,0014.62,0003.69,0001.83
2022-06-07 07:22:00,,0824.4,5.00,0.00,30.3,29.3,00.0,39.2,32.1,25.6,0000.0,0013.63,0003.66,0001.81
2022-06-07 07:23:00,,0824.3,4.99,0.00,30.3,29.3,00.0,39.2,32.1,25.6,0000.0,0012.73,0003.60,0001.79
2022-06-07 07:24:00,,0824.3,5.00,0.00,30.3,29.2,00.0,39.2,32.1,25.6,0000.0,0012.26,0003.56,0001.78
2022-06-07 07:25:00,,0824.3,4.99,0.00,30.3,29.2,00.0,39.2,32.1,25.6,0000.0,0011.84,0003.53,0001.77
2022-06-07 07:26:00,,0824.3,5.01,0.00,30.3,29.2,00.0,39.2,32.1,25.7,0000.0,0011.98,0003.51,0001.74
2022-06-07 07:27:00,,0824.4,4.99,0.00,30.3,29.2,00.0,39.2,32.1,25.7,0000.0,0011.90,0003.47,0001.73
2022-06-07 07:28:00,,0824.3,5.00,0.00,30.3,29.2,00.0,39.2,32.1,25.7,0000.0,0011.34,0003.41,0001.70
2022-06-07 07:29:00,,0824.4,5.01,0.00,30.3,29.2,00.0,39.2,32.1,25.8,0000.0,0010.79,0003.42,0001.70
2022-06-07 07:30:00,,0824.4,4.99,0.00,30.3,29.2,00.0,39.2,32.1,25.9,0000.0,0010.38,0003.39,0001.68
2022-06-07 07:31:00,,0824.4,5.00,0.00,30.3,29.2,00.0,39.2,32.1,25.9,0000.0,0010.54,0003.40,0001.69
2022-06-07 07:32:00,,0824.4,5.01,0.00,30.3,29.2,00.0,39.2,32.1,25.9,0000.0,0010.77,0003.44,0001.70
2022-06-07 07:33:00,,0824.4,5.01,0.00,30.2,29.2,00.0,39.2,32.0,26.0,0000.0,0010.95,0003.45,0001.69
2022-06-07 07:34:00,,0824.4,4.99,0.00,30.2,29.2,00.0,39.2,32.0,26.0,0000.0,0011.46,0003.47,0001.68
2022-06-07 07:35:00,,0824.5,5.01,0.00,30.2,29.2,00.0,39.2,32.0,26.1,0000.0,0012.79,0003.48,0001.68
2022-06-07 07:36:00,,0824.5,4.99,0.00,30.2,29.2,00.0,39.2,32.0,26.0,0000.0,0012.53,0003.49,0001.67
2022-06-07 07:37:00,,0824.5,5.00,0.00,30.2,29.2,00.0,39.2,32.0,26.1,0000.0,0011.87,0003.46,0001.68
2022-06-07 07:38:00,,0824.5,5.00,0.00,30.2,29.2,00.0,39.2,32.1,26.1,0000.0,0011.75,0003.45,0001.69
2022-06-07 07:39:00,,0824.5,5.00,0.00,30.2,29.2,00.0,39.2,32.1,26.1,0000.0,0011.64,0003.47,0001.69
2022-06-07 07:40:00,,0824.5,4.99,0.00,30.2,29.2,00.0,39.2,32.1,26.2,0000.0,0011.54,0003.48,0001.69
2022-06-07 07:41:00,,0824.6,5.01,0.00,30.2,29.2,00.0,39.2,32.0,26.2,0000.0,0012.29,0003.56,0001.71
2022-06-07 07:42:00,,0824.7,4.99,0.00,30.2,29.2,00.0,39.2,32.0,26.3,0000.0,0011.78,0003.56,0001.71
2022-06-07 07:43:00,,0824.6,5.00,0.00,30.2,29.2,00.0,39.2,32.0,26.4,0000.0,0012.01,0003.53,0001.72
2022-06-07 07:44:00,,0824.7,5.00,0.00,30.2,29.2,00.0,39.2,32.0,26.6,0000.0,0011.99,0003.56,0001.75
2022-06-07 07:45:00,,0824.6,5.00,0.00,30.2,29.2,00.0,39.2,32.0,27.0,0000.0,0011.47,0003.57,0001.76
2022-06-07 07:46:00,,0824.6,5.00,0.00,30.2,29.2,00.0,39.2,32.0,26.7,0000.0,0010.33,0003.56,0001.77
2022-06-07 07:47:00,,0824.6,5.01,0.00,30.2,29.1,00.0,39.2,32.0,26.5,0000.0,0010.47,0003.56,0001.77
2022-06-07 07:48:00,,0824.5,4.99,0.00,30.2,29.1,00.0,39.2,32.0,26.5,0000.0,0010.44,0003.63,0001.79
2022-06-07 07:49:00,,0824.5,5.01,0.00,30.2,29.1,00.0,39.2,32.0,26.5,0000.0,0010.00,0003.64,0001.80
2022-06-07 07:50:00,,0824.6,5.00,0.00,30.2,29.1,00.0,39.2,32.0,26.5,0000.0,0010.44,0003.63,0001.82
2022-06-07 07:51:00,,0824.7,4.99,0.00,30.2,29.1,00.0,39.2,32.0,26.5,0000.0,0010.89,0003.64,0001.83
2022-06-07 07:52:00,,0824.6,4.99,0.00,30.2,29.1,00.0,39.2,32.0,26.5,0000.0,0010.07,0003.59,0001.83
2022-06-07 07:53:00,,0824.6,5.02,0.00,30.2,29.1,00.0,39.1,32.0,26.4,0000.0,0009.88,0003.55,0001.84
2022-06-07 07:54:00,,0824.6,5.00,0.00,30.2,29.1,00.0,39.1,32.0,26.3,0000.0,0010.04,0003.54,0001.86
2022-06-07 07:55:00,,0824.6,4.98,0.00,30.2,29.1,00.0,39.1,32.0,26.4,0000.0,0009.90,0003.50,0001.87
2022-06-07 07:56:00,,0824.6,5.02,0.00,30.2,29.1,00.0,39.1,32.0,26.4,0000.0,0009.81,0003.49,0001.88
2022-06-07 07:57:00,,0824.6,4.99,0.00,30.2,29.1,00.0,39.1,32.0,26.4,0000.0,0009.56,0003.47,0001.88
2022-06-07 07:58:00,,0824.7,5.00,0.00,30.2,29.1,00.0,39.1,32.0,26.3,0000.0,0009.48,0003.48,0001.88
2022-06-07 07:59:00,,0824.6,5.01,0.00,30.2,29.1,00.0,39.1,32.0,26.4,0000.0,0009.70,0003.42,0001.86
